Location: Baia Mare
(47.6567°N, 23.5850°E)
Time: 15:06:28
(UTC+03:00)

ISS - Pass Details

Date: 27 May 2018
Orbit: 402 x 407 km, 51.6° (Epoch: 25 May)

Event Time Altitude Azimuth Distance (km) Brightness Sun altitude
Rises 22:53:08 0° 279° (W) 2,320 0.7 -13.2°
Reaches altitude 10° 22:55:18 10° 287° (WNW) 1,460 -0.2 -13.4°
Maximum altitude 22:58:24 39° 359° (N) 625 -2.4 -13.7°
Drops below altitude 10° 23:01:30 10° 70° (ENE) 1,458 -1.2 -14.0°
Enters shadow 23:03:04 - 77° (ENE) 2,077 -0.4 -14.1°
